千帆星座-41 (QIANFAN-41)

导读

QIANFAN-41 是中国北斗卫星导航系统的一部分,属于北斗三号系统的地球静止轨道卫星。该卫星由中国自主研发,主要用于提供高精度定位、导航和授时服务,增强区域及全球服务能力。QIANFAN-41 的发射进一步提升了北斗系统的稳定性和覆盖范围,广泛应用于交通、农业、通信、应急救援等多个领域,推动了中国在卫星导航技术领域的自主创新能力和发展水平。

Basic Information
目录编号:
62242
目录名称:
QIANFAN-41
国际标识:
2024-232F
轨道中心:
EARTH
卫星名称:
千帆星座-41
卫星全名:
千帆星座-41 (QIANFAN-41)
卫星状态:
在轨 (已飞行555 天)
发射日期:
2024-12-05 UTC
国别 :
中国 (CN)
星等 :
--
Orbit Information
数据来源 国际轨道数据 AOE轨道数据
星历时间 2026-06-13T03:26:03+0800
6小时前
查看轨道信息
2026-06-11T06:00:00+0800
2天前
查看轨道信息
半长轴 7446.685km 7446.688km
偏心率 0.0015111 0.0015543
轨道倾角 89.008° 89.008°
近地点辐角 32.047° 36.820°
升交点赤经 22.901° 23.091°
平近点角 328.160° 121.540°
近地点 1057.295km 1056.976km
远地点 1079.801km 1080.126km
周期 106.587分钟 106.587分钟
每日圈数 13.510093 13.510085
Detailed Information
卫星平台:
41
覆盖范围:
全球
运营商:
上海垣信卫星科技有限公司
运营商所在国:
中国
使用方式:
暂无
Satellite Introduction
千帆星座,也被称为“G60星链”计划,是中国版“星链”的重要组成部分,旨在打造一个由1.4万多颗低轨宽频多媒体卫星构成的庞大星座。千帆星座计划由上海垣信卫星科技有限公司负责实施,于2023年启动建设。该项目是我国第二个低轨卫星大星座,旨在通过构建庞大的卫星网络,为全球用户提供高质量的通信和宽带互联网服务。
2D Orbit Map
3D Orbit Map
Orbit Altitude Analysis Chart
Orbit Inclination Analysis Chart
Orbit Comprehensive Analysis Chart
View Comprehensive Chart